Lid_Strength_Index
-1 -1 -1 -1 -1 -1 -1 -1 -1 -1 -1 -1 1 2 2 2 2 3 6 4 4 3 3 7 6 8 8 9 8 8 10 11 11 10 8 6 6 6 6 5 4 4 4 3 2
-1 -1 -1 -1 -1 -1 -1 -1 -1 -1 -1 -1 1 2 3 2 4 5 3 2 2 3 5 7 7 9 10 10 9 10 11 11 10 9 9 7 6 6 6 5 5 5 3 2 2
-1 -1 -1 -1 -1 -1 -1 -1 -1 -1 -1 -1 1 2 2 3 6 6 1 2 2 1 4 6 9 10 11 10 10 11 11 11 10 10 10 9 8 6 6 7 5 5 4 4 3
-1 -1 -1 -1 -1 -1 -1 -1 -1 1 -1 -1 -1 2 2 3 11 4 1 1 2 3 4 6 10 11 12 12 11 11 11 10 10 10 11 11 8 7 6 5 5 3 3 3 4
-1 -1 -1 -1 -1 -1 -1 -1 -1 0 0 -1 -0 2 2 5 7 3 1 1 3 5 6 7 11 12 10 12 11 11 12 11 11 11 11 10 10 7 7 5 6 3 3 4 4
-1 -1 -1 -1 -1 -1 -1 -1 0 0 1 -0 -1 -1 3 9 5 4 1 2 4 6 7 6 7 10 12 11 11 11 11 12 11 11 11 11 11 10 6 5 5 4 4 3 3
-1 -1 -1 -1 -1 -1 -1 -1 1 0 2 1 -1 0 4 6 5 4 2 3 3 6 8 6 7 8 10 12 11 11 13 12 11 10 11 11 13 12 8 5 5 4 4 4 3
-1 -2 -2 -1 -1 -1 -1 -1 0 1 1 2 -0 1 7 4 4 5 5 3 4 5 7 7 7 9 10 11 12 12 11 15 11 11 11 12 13 10 9 8 6 4 4 4 4
-1 -1 -1 -1 -1 -1 -1 -1 1 1 1 2 2 3 7 3 5 5 6 5 6 7 7 6 8 10 10 14 15 14 14 13 13 11 11 11 12 11 10 10 7 5 4 4 4
-1 -1 -1 -1 -1 -1 -1 -1 0 1 2 2 3 6 6 7 6 6 6 7 9 8 10 10 12 13 12 14 16 17 15 14 13 12 12 12 12 11 11 10 9 7 4 5 4
-1 -1 -1 -1 -1 -1 -0 1 6 7 4 8 7 7 6 4 5 7 7 8 10 10 14 12 14 16 12 12 10 13 13 14 13 12 12 12 11 9 11 10 9 8 7 5 4
-1 -1 -1 -1 -1 -1 -0 4 6 5 9 5 6 5 5 3 8 8 6 11 12 16 14 15 16 13 11 10 13 13 15 14 14 13 13 13 12 10 10 10 9 7 6 6 5
-1 -1 -1 -1 -1 -0 2 3 1 2 8 7 6 7 7 4 7 10 7 11 13 15 15 16 13 13 14 14 15 14 14 14 14 14 14 14 14 12 11 10 10 10 8 7 6
-1 -1 -1 -1 1 1 3 0 -0 2 12 11 9 7 7 6 9 6 7 10 13 14 14 15 14 14 14 14 13 16 14 14 15 14 16 14 16 13 11 11 11 9 7 7 6
-1 -1 -1 -1 2 3 2 -0 1 3 20 9 9 5 6 7 10 9 6 10 14 14 15 15 15 15 15 14 13 14 13 13 15 15 15 15 16 13 14 13 11 9 7 7 6
-0 -0 -1 0 1 1 -0 -0 3 14 20 13 9 10 10 9 9 9 10 10 10 14 13 15 13 13 13 15 13 14 14 15 15 15 18 14 15 14 14 13 10 9 8 8 6
-0 -0 -0 -0 3 -1 -0 4 14 18 11 13 13 11 11 12 12 11 12 14 16 18 17 16 15 14 14 15 14 14 14 18 18 18 19 18 18 14 12 11 10 10 9 10 9
0 -0 0 0 -1 -0 2 9 17 14 13 11 11 11 13 12 13 12 13 14 12 14 16 18 19 16 14 13 15 15 14 17 20 20 18 19 18 14 11 12 11 11 11 10 9
-0 1 1 0 -1 0 7 15 15 13 10 12 11 14 14 12 13 13 13 14 12 12 16 16 17 15 14 14 13 15 16 14 19 22 18 16 15 13 11 12 12 12 12 11 9
2 3 3 0 -0 3 9 13 12 10 10 10 15 13 15 15 14 14 14 12 12 12 12 14 18 15 15 13 14 14 14 18 17 20 21 19 18 15 13 13 13 12 12 11 10
3 7 2 -0 1 7 13 12 11 9 9 11 12 13 13 14 13 14 14 12 11 13 12 13 15 17 15 16 15 15 16 16 15 16 18 20 17 13 14 13 13 12 11 10 9
5 10 1 1 9 9 11 9 9 10 9 10 9 10 12 12 13 12 13 12 10 12 14 12 15 17 16 14 14 13 14 14 17 19 18 18 16 15 13 12 12 12 11 10 8
7 6 2 3 12 12 9 9 9 10 10 11 10 9 9 11 14 11 11 10 10 12 13 13 15 18 18 15 15 15 15 13 15 15 19 17 16 14 13 12 12 12 12 11 9
7 10 7 6 6 9 11 11 12 10 10 9 10 9 10 11 10 12 12 10 9 11 11 11 15 15 18 16 15 17 16 14 15 16 17 16 15 14 12 12 12 12 11 10 9
7 9 7 12 10 9 9 10 12 13 10 9 11 10 10 12 12 12 11 11 10 11 11 13 16 16 17 15 14 15 16 16 16 14 16 14 15 13 11 11 11 10 10 10 10
8 9 6 8 8 9 9 10 11 11 11 13 11 10 9 11 11 13 12 11 12 12 12 12 15 16 17 16 15 16 14 14 14 13 14 15 15 11 11 11 10 10 10 10 9
6 5 7 8 10 10 11 10 10 10 9 9 9 10 10 9 8 8 8 10 11 12 13 13 15 14 18 17 16 17 16 15 14 13 13 15 13 12 13 11 10 10 9 9 8